Probability
0 0 0 0 0 0 0 0 0 0 0 0 0 0 0 0 0 0 0 0 0 0 0 0 0 3 6 10 10 10 10 3 3 0 0 0 0 0 0 0 0 3 6 3
0 0 0 0 0 0 0 0 0 0 0 0 0 0 0 0 0 0 0 0 0 0 0 0 0 0 3 6 6 6 6 3 3 3 3 0 0 0 3 0 0 0 3 3
0 0 0 0 0 0 0 0 0 0 0 0 0 0 0 0 0 0 0 0 0 0 0 0 0 0 0 3 6 3 6 3 3 3 0 0 0 0 0 0 0 0 0 3
0 0 0 0 0 0 0 0 0 0 0 0 0 0 0 0 0 0 0 0 0 0 0 0 0 0 0 3 3 6 6 3 3 3 0 0 0 0 0 0 0 0 0 0
0 0 0 0 0 0 0 0 0 0 0 0 0 0 0 0 0 0 0 0 0 0 0 0 0 0 0 3 3 3 3 3 3 3 3 0 0 0 0 0 0 0 0 0
0 0 0 0 0 0 0 0 0 0 0 0 0 0 0 0 0 0 0 0 0 0 0 0 0 0 0 3 6 6 3 3 3 3 3 3 0 0 0 0 0 0 0 0
0 0 0 0 0 0 0 0 0 0 0 0 0 0 0 0 0 0 0 0 0 0 0 0 0 0 0 3 6 3 3 3 3 3 3 3 3 0 0 0 0 0 0 0
0 0 0 0 0 0 0 0 0 0 0 0 0 0 0 0 0 0 0 0 0 0 0 0 0 0 0 3 3 3 3 3 3 3 3 3 3 3 0 0 0 0 0 0
0 0 0 0 0 0 0 0 0 0 0 0 0 0 0 0 0 0 0 0 0 0 0 0 0 0 0 0 3 3 3 3 3 3 3 3 3 3 3 3 0 0 0 0
0 0 0 0 0 0 0 0 0 0 0 0 0 0 0 0 0 0 0 0 0 0 0 0 0 0 0 0 0 3 3 3 3 3 3 3 3 3 3 3 3 3 0 0
0 0 0 0 0 0 0 0 0 0 0 0 0 0 0 0 0 0 0 0 0 0 0 0 0 0 0 0 0 0 0 3 3 3 3 3 3 3 3 3 3 3 3 0
0 0 0 0 0 0 0 0 0 0 0 0 0 0 0 0 0 0 0 0 0 0 0 0 0 0 0 0 0 0 0 3 3 3 3 3 3 3 3 3 3 3 3 0
0 0 0 0 0 0 0 0 0 0 0 0 0 0 0 0 0 0 0 0 0 0 0 0 0 0 0 0 0 0 0 0 3 3 3 3 3 3 3 3 3 3 3 0
0 0 0 0 0 0 0 0 0 0 0 0 0 0 0 0 0 0 0 0 0 0 0 0 0 0 0 0 0 0 0 0 0 3 3 3 3 3 3 3 3 0 0 0
0 0 0 0 0 0 0 0 0 0 0 0 0 0 0 0 0 0 0 0 0 0 0 0 0 0 0 0 0 0 0 0 0 0 3 3 3 3 3 3 0 0 0 0
0 0 0 0 0 0 0 0 0 0 0 0 0 0 0 0 0 0 0 0 0 0 0 0 0 0 0 0 0 0 0 0 0 0 0 0 0 0 0 0 0 0 0 0
0 0 0 0 0 0 0 0 0 0 0 0 0 0 0 0 0 0 0 0 0 0 0 0 0 0 0 0 0 0 0 0 0 0 0 0 0 0 0 0 0 0 0 0
0 0 0 0 0 0 0 0 0 0 0 0 0 0 0 0 0 0 0 0 0 0 0 0 0 0 0 0 0 0 0 0 0 0 0 0 0 0 0 0 0 0 0 0
0 0 0 0 0 0 0 0 0 0 0 0 0 0 0 0 0 0 0 0 0 0 0 0 0 0 0 0 0 0 0 0 0 0 0 0 0 0 0 0 0 0 0 0
0 0 0 0 0 0 0 0 0 0 0 0 0 0 0 0 0 0 0 0 0 0 0 0 0 0 0 0 0 0 0 0 0 0 0 0 0 0 0 0 0 0 0 0
0 0 0 0 0 0 0 0 0 0 0 0 0 0 0 0 0 0 0 0 0 0 0 0 0 0 0 0 0 0 0 0 0 0 0 0 0 0 0 0 0 0 0 0
0 0 0 0 0 0 0 0 0 0 0 0 0 0 0 0 0 0 0 0 0 0 0 0 0 0 0 0 0 0 0 0 0 0 0 0 0 0 0 0 0 0 0 0
0 0 0 0 0 0 0 0 0 0 0 0 0 0 0 0 0 0 0 0 0 0 0 0 0 0 0 0 0 0 0 0 0 0 0 0 0 0 0 0 0 0 0 0
0 0 0 0 0 0 0 0 0 0 0 0 0 0 0 0 0 0 0 0 0 0 0 0 0 0 0 0 0 0 0 0 0 0 0 0 0 0 0 0 0 0 0 0
0 0 0 0 0 0 0 0 0 0 0 0 0 0 0 0 0 0 0 0 0 0 0 0 0 0 0 0 0 0 0 0 0 0 0 0 0 0 0 0 0 0 0 0
0 0 0 0 0 0 0 0 0 0 0 0 0 0 0 0 0 0 0 0 0 0 0 0 0 0 0 0 0 0 0 0 0 0 0 0 0 0 0 0 0 0 0 0
Height
5690 5687 5683 5681 5678 5676 5673 5672 5671 5670 5668 5668 5667 5667 5667 5668 5669 5671 5673 5676 5678 5680 5682 5683 5685 5688 5690 5693 5697 5700 5704 5709 5715 5720 5726 5731 5736 5741 5745 5749 5753 5757 5760 5764
5682 5679 5676 5673 5670 5668 5666 5664 5663 5662 5660 5659 5658 5658 5658 5658 5659 5661 5663 5665 5667 5669 5671 5672 5673 5675 5678 5681 5685 5689 5693 5697 5703 5708 5714 5720 5725 5730 5734 5739 5743 5747 5751 5754
5674 5672 5668 5665 5662 5660 5658 5656 5655 5653 5652 5650 5649 5649 5650 5649 5650 5651 5652 5654 5656 5658 5659 5661 5662 5664 5667 5670 5673 5677 5681 5685 5690 5696 5702 5708 5713 5719 5723 5728 5733 5737 5740 5744
5666 5664 5661 5658 5655 5652 5651 5649 5647 5645 5643 5642 5641 5639 5641 5641 5640 5641 5642 5644 5645 5647 5648 5649 5651 5653 5655 5658 5661 5664 5668 5673 5678 5683 5690 5696 5703 5708 5713 5719 5723 5726 5730 5734
5659 5656 5653 5651 5648 5645 5643 5641 5640 5637 5635 5634 5633 5632 5633 5632 5631 5632 5632 5633 5634 5636 5637 5638 5640 5641 5643 5645 5648 5651 5655 5661 5666 5671 5678 5685 5691 5697 5702 5707 5712 5716 5720 5724
5651 5648 5645 5643 5640 5638 5636 5634 5632 5630 5628 5627 5626 5624 5623 5623 5623 5623 5624 5624 5625 5625 5627 5628 5629 5630 5631 5633 5635 5638 5643 5648 5654 5660 5666 5673 5680 5686 5691 5696 5701 5706 5710 5714
5644 5642 5638 5636 5633 5631 5629 5627 5624 5621 5619 5619 5618 5615 5615 5615 5614 5614 5615 5615 5615 5616 5616 5617 5618 5619 5621 5622 5624 5627 5631 5637 5642 5648 5655 5661 5668 5674 5680 5685 5690 5695 5699 5704
5636 5634 5631 5628 5625 5623 5621 5619 5617 5614 5612 5611 5610 5607 5608 5607 5606 5605 5605 5606 5606 5606 5606 5607 5607 5609 5610 5612 5614 5617 5621 5625 5631 5637 5643 5649 5656 5662 5668 5673 5679 5684 5689 5693
5628 5626 5623 5621 5618 5616 5613 5611 5610 5607 5604 5603 5601 5601 5600 5599 5598 5597 5597 5597 5597 5597 5597 5597 5598 5599 5600 5601 5603 5607 5610 5614 5619 5625 5632 5638 5645 5651 5657 5662 5667 5672 5677 5682
5620 5618 5616 5613 5611 5608 5606 5604 5602 5599 5596 5594 5593 5593 5593 5591 5590 5590 5589 5589 5589 5589 5589 5589 5589 5590 5590 5591 5593 5596 5600 5603 5608 5614 5620 5627 5633 5639 5644 5649 5654 5660 5665 5670
5613 5611 5608 5605 5603 5601 5599 5597 5594 5592 5590 5587 5585 5589 5585 5584 5582 5582 5582 5581 5581 5581 5581 5581 5581 5581 5582 5582 5584 5586 5590 5594 5598 5603 5609 5615 5621 5627 5632 5637 5643 5648 5653 5658
5605 5603 5600 5598 5595 5592 5590 5589 5587 5586 5583 5581 5579 5582 5578 5577 5575 5574 5574 5573 5572 5572 5572 5572 5572 5573 5573 5574 5575 5577 5581 5585 5589 5594 5599 5604 5610 5615 5620 5626 5631 5635 5641 5645
5598 5595 5592 5589 5589 5585 5582 5581 5579 5577 5576 5574 5572 5576 5571 5569 5568 5566 5566 5565 5564 5563 5563 5563 5564 5564 5565 5565 5567 5569 5572 5576 5580 5584 5589 5593 5598 5603 5608 5613 5618 5623 5628 5632
5591 5588 5585 5582 5578 5575 5574 5573 5571 5569 5568 5566 5566 5566 5565 5562 5560 5559 5558 5557 5556 5555 5555 5555 5555 5556 5556 5557 5559 5562 5564 5568 5571 5575 5578 5583 5588 5592 5597 5601 5606 5610 5615 5619
5583 5580 5577 5574 5570 5568 5566 5565 5563 5561 5560 5559 5559 5558 5557 5554 5553 5552 5550 5549 5548 5547 5546 5546 5547 5547 5548 5549 5551 5553 5556 5559 5563 5566 5569 5573 5577 5581 5585 5590 5594 5598 5602 5606
5574 5571 5568 5566 5563 5560 5558 5556 5555 5553 5552 5551 5550 5550 5549 5546 5545 5544 5542 5541 5539 5539 5538 5538 5538 5539 5540 5541 5543 5545 5548 5551 5554 5557 5560 5563 5567 5570 5575 5578 5582 5586 5590 5593
5565 5562 5559 5557 5554 5551 5550 5549 5547 5545 5544 5543 5541 5542 5540 5538 5536 5535 5534 5533 5532 5530 5530 5530 5530 5530 5531 5533 5534 5537 5539 5542 5544 5548 5551 5554 5557 5561 5565 5568 5571 5574 5578 5580
5557 5553 5550 5548 5546 5543 5544 5540 5538 5536 5536 5534 5533 5532 5531 5529 5528 5527 5526 5524 5523 5522 5522 5522 5522 5522 5523 5524 5526 5528 5530 5533 5536 5539 5542 5545 5548 5551 5554 5557 5560 5563 5566 5569
5548 5545 5541 5539 5536 5534 5535 5532 5529 5527 5527 5525 5524 5523 5522 5521 5520 5519 5517 5516 5515 5514 5514 5514 5514 5514 5515 5516 5517 5520 5522 5525 5527 5530 5533 5536 5539 5541 5544 5547 5549 5552 5555 5557
5539 5536 5534 5530 5527 5525 5526 5523 5519 5519 5518 5517 5515 5514 5513 5512 5512 5512 5510 5508 5508 5507 5506 5506 5506 5507 5507 5508 5509 5511 5514 5516 5519 5522 5524 5527 5529 5532 5534 5536 5539 5541 5544 5546
5530 5527 5525 5521 5518 5517 5517 5514 5512 5512 5511 5508 5506 5505 5504 5503 5503 5503 5501 5501 5500 5499 5499 5498 5498 5499 5500 5501 5502 5504 5506 5508 5511 5513 5516 5518 5520 5523 5525 5527 5529 5531 5533 5536
5520 5518 5516 5513 5510 5511 5508 5505 5504 5503 5501 5499 5498 5497 5496 5495 5494 5494 5493 5493 5492 5491 5491 5491 5491 5491 5492 5493 5495 5496 5498 5500 5502 5505 5507 5510 5511 5513 5516 5518 5519 5521 5523 5526
5512 5510 5507 5506 5505 5502 5499 5497 5495 5494 5492 5491 5490 5489 5488 5487 5486 5486 5485 5485 5485 5484 5483 5483 5483 5484 5485 5486 5487 5488 5490 5491 5493 5496 5498 5501 5503 5505 5507 5509 5510 5512 5514 5516
5503 5501 5498 5496 5496 5493 5490 5489 5487 5485 5484 5482 5481 5480 5479 5479 5478 5478 5477 5477 5477 5476 5476 5475 5476 5477 5477 5478 5479 5481 5482 5483 5485 5488 5490 5492 5494 5496 5498 5500 5501 5503 5505 5507
5495 5492 5489 5488 5487 5485 5483 5480 5479 5477 5476 5474 5473 5472 5471 5470 5470 5470 5469 5469 5469 5468 5468 5468 5468 5469 5470 5471 5472 5473 5474 5476 5478 5480 5481 5483 5485 5487 5489 5491 5492 5494 5496 5498
5486 5484 5481 5480 5478 5476 5474 5472 5471 5469 5468 5467 5466 5464 5463 5462 5462 5461 5461 5461 5460 5460 5460 5460 5461 5461 5462 5463 5464 5466 5467 5468 5470 5471 5473 5474 5476 5479 5481 5482 5484 5485 5487 5489
Wind_Speed
30 30 29 30 30 29 28 28 29 29 29 30 32 33 33 35 35 35 35 36 36 36 37 39 40 41 42 43 44 44 46 48 49 48 47 47 47 46 46 46 45 44 42 40
29 30 29 29 29 28 28 28 29 29 29 30 31 32 32 33 34 35 35 36 36 36 37 38 39 41 43 44 44 44 45 48 49 49 48 47 47 47 47 46 46 46 44 41
30 30 29 28 27 28 28 28 29 29 29 29 30 31 32 32 33 34 35 35 36 37 37 38 39 40 42 43 45 45 46 47 49 50 49 48 48 48 48 47 46 46 46 44
28 28 28 27 26 27 28 28 29 29 29 28 28 30 29 31 32 33 34 34 35 36 37 37 38 40 42 43 45 45 46 47 49 51 50 49 49 48 47 47 47 47 46 46
29 29 29 27 26 27 27 27 28 28 28 28 27 29 29 30 31 32 32 32 33 35 36 37 38 39 41 42 44 45 46 48 50 51 51 51 50 49 48 48 49 48 47 47
28 28 28 27 27 27 27 27 28 28 27 28 27 29 30 31 30 31 31 31 31 33 35 36 37 38 40 41 42 44 45 48 50 49 51 52 52 51 49 49 50 49 48 48
28 27 27 27 27 26 26 27 29 29 29 29 28 29 29 30 30 30 30 30 31 32 34 35 35 37 39 40 42 43 45 47 49 49 51 52 53 53 51 50 51 49 49 48
28 27 27 27 27 26 26 26 27 29 30 30 29 28 28 27 27 28 28 29 30 31 32 33 34 36 37 39 42 44 45 47 49 50 51 52 53 53 53 52 52 51 50 49
27 27 27 27 27 26 26 26 27 27 29 30 29 27 27 27 26 27 27 28 28 30 31 32 33 34 36 38 40 43 44 45 48 49 50 51 52 52 52 52 53 53 52 52
27 27 27 27 27 26 26 26 26 26 27 28 28 27 27 26 26 26 26 27 27 28 29 30 31 33 34 36 38 41 43 44 47 49 50 51 51 51 51 50 50 52 53 53
27 27 27 27 27 27 26 27 27 27 27 26 27 26 26 26 27 25 26 28 28 27 28 30 30 31 33 35 37 39 41 43 46 48 50 51 50 50 50 50 50 51 52 53
28 28 28 27 27 27 27 26 27 27 27 27 27 25 25 25 27 28 27 28 29 29 30 30 30 31 31 33 35 38 39 41 43 45 48 49 50 51 51 51 50 51 52 53
28 29 29 29 28 27 27 26 26 27 27 27 27 25 25 25 27 28 29 29 30 31 31 30 30 30 31 32 34 35 38 40 40 43 45 47 48 49 50 51 51 50 51 53
29 29 29 28 28 28 27 27 26 26 27 28 27 26 25 26 26 27 28 29 30 31 31 31 31 31 31 32 33 34 36 38 39 41 43 45 47 47 49 50 51 50 51 53
30 29 29 28 28 27 27 28 28 27 27 28 27 27 26 27 27 27 27 27 29 30 30 30 30 31 31 32 33 35 35 36 37 38 40 43 44 45 46 48 49 49 50 52
30 30 29 28 28 28 27 28 28 28 29 29 29 28 27 28 29 28 28 28 27 28 29 29 29 30 31 32 33 35 35 35 36 36 37 40 42 44 45 46 47 49 50 51
31 31 31 29 28 28 28 28 29 29 29 29 29 28 28 28 30 29 28 28 28 27 27 28 28 29 30 32 33 34 35 36 37 37 37 38 39 41 42 44 45 47 48 49
31 31 31 30 30 29 28 28 28 28 28 29 30 29 28 28 29 29 29 28 27 27 27 27 28 28 29 31 33 35 35 36 36 36 38 39 39 39 40 42 44 45 48 48
31 30 31 31 31 30 28 28 28 28 28 29 30 30 29 28 28 28 28 27 26 26 26 26 27 27 28 30 31 33 34 35 35 36 37 37 38 38 39 41 42 44 46 47
30 30 30 30 31 30 28 28 28 29 28 28 28 29 30 29 28 26 26 27 26 25 25 26 26 27 28 29 30 32 33 34 34 35 37 38 38 38 38 40 42 43 45 46
29 29 29 29 29 29 27 27 27 27 27 27 27 28 28 29 28 27 26 26 25 25 25 24 25 26 27 28 29 31 32 33 34 36 37 37 37 38 39 39 40 42 43 44
29 29 29 29 28 27 27 26 26 27 26 26 27 27 27 28 28 27 27 26 25 25 25 25 24 25 25 26 27 29 31 32 34 35 36 37 37 37 37 38 38 39 40 42
29 29 29 29 28 28 28 27 27 26 26 26 26 27 27 27 27 27 26 26 25 25 25 25 25 25 24 25 26 28 30 31 32 34 34 35 36 37 37 37 38 38 39 40
29 29 29 29 28 28 28 28 27 27 27 27 27 27 26 26 26 25 25 25 24 25 25 24 24 25 25 25 26 27 29 30 31 32 33 33 34 35 36 36 36 37 37 38
28 28 28 28 28 29 28 28 27 27 27 26 27 26 26 26 25 24 24 24 24 24 24 24 24 25 24 24 25 27 28 29 31 32 32 33 33 33 34 35 35 35 36 37
26 27 27 28 28 28 28 28 28 28 27 26 26 26 26 26 25 24 23 23 23 23 24 25 25 25 24 25 25 26 28 29 30 31 31 32 34 33 33 33 34 34 35 36
Wind_Direction
295 293 291 289 288 284 280 278 276 276 276 272 269 265 259 254 253 252 251 250 249 249 247 246 245 244 243 241 241 239 238 236 235 234 234 235 234 235 235 236 237 237 237 237
295 293 292 291 288 283 280 279 278 276 278 274 269 265 259 256 255 253 252 251 250 249 248 247 245 244 242 242 241 240 239 236 235 234 233 233 234 234 235 235 236 236 236 237
294 295 294 291 290 285 280 279 278 277 277 274 271 267 261 259 258 255 254 252 251 251 250 249 247 245 243 242 242 242 239 236 234 233 232 232 233 233 234 235 236 237 236 237
294 294 293 292 290 287 282 279 278 277 278 275 272 270 264 262 260 259 257 255 252 252 251 249 247 246 244 243 243 242 239 235 234 233 232 232 233 233 235 236 236 236 237 237
296 295 293 292 291 288 283 281 280 278 277 275 273 272 270 265 263 262 260 259 257 254 252 251 249 247 246 245 244 241 238 234 233 233 232 232 232 233 234 235 236 236 236 237
294 293 293 292 291 289 284 281 280 277 277 277 275 276 273 268 265 263 262 260 259 257 254 252 251 249 247 245 244 241 237 235 234 233 233 232 232 233 234 234 236 237 237 237
291 292 293 293 292 289 285 282 282 279 280 279 279 278 276 272 268 264 263 262 260 258 256 254 252 248 246 245 243 241 239 235 233 233 233 233 232 233 234 234 236 236 237 237
294 291 293 293 292 290 286 284 283 282 281 281 278 277 276 274 270 265 262 263 263 259 257 255 253 250 247 245 242 240 240 237 234 232 232 232 232 234 235 236 236 237 237 238
297 294 293 293 292 289 286 285 283 284 284 281 278 275 273 273 271 267 263 263 264 261 258 255 254 252 250 246 243 239 238 238 236 234 234 233 233 234 235 236 237 237 238 238
296 296 294 292 291 289 286 285 285 284 285 283 279 277 276 274 273 267 264 265 264 262 260 258 256 254 251 247 244 243 241 239 237 235 235 234 233 234 234 235 235 237 237 238
297 296 296 293 290 288 286 283 283 283 283 284 283 280 277 275 271 268 265 265 265 264 263 260 257 255 253 249 246 244 242 240 237 235 234 234 235 234 235 236 237 237 237 238
298 295 295 293 289 287 285 283 281 280 280 280 280 280 277 275 272 270 268 267 266 265 263 261 258 256 254 250 247 244 240 239 237 236 235 235 236 236 237 238 238 239 238 238
301 298 296 294 290 287 284 282 280 278 276 277 278 278 276 275 275 273 271 269 268 265 264 261 258 256 254 251 246 243 239 238 238 236 235 235 236 236 237 238 238 239 239 239
301 300 298 296 294 288 283 280 280 278 274 275 276 276 275 274 275 275 273 271 271 267 265 263 260 257 254 251 246 242 241 238 236 236 235 236 236 237 237 238 239 239 240 239
299 298 298 296 293 289 284 280 279 278 276 276 276 274 274 273 274 275 275 272 270 268 265 263 261 258 254 249 245 241 239 236 236 237 238 237 235 237 238 239 239 239 240 240
297 297 298 295 292 289 284 280 278 277 276 276 276 274 273 274 275 275 276 274 271 269 264 262 260 257 251 247 245 242 241 239 238 239 238 236 237 237 238 238 240 241 242 241
296 297 297 295 292 289 285 283 280 277 277 276 276 276 273 273 275 275 275 274 273 271 265 261 260 258 254 250 247 245 244 243 241 240 239 237 236 237 238 240 240 242 243 243
296 296 296 295 293 289 288 285 282 278 277 277 275 275 274 273 273 273 274 274 273 271 267 262 259 257 255 251 248 246 247 247 245 244 243 241 240 240 241 240 242 243 243 244
294 295 295 294 293 291 287 286 283 280 278 277 276 274 273 274 274 271 271 272 271 270 268 264 261 258 255 250 247 247 247 248 246 245 243 241 240 241 243 243 243 244 243 243
294 294 294 294 293 292 290 287 284 282 280 279 278 276 273 273 273 272 271 270 269 267 266 264 261 258 257 253 249 248 247 247 246 245 245 244 244 245 246 246 245 245 244 243
293 293 292 293 292 291 290 287 283 282 282 281 279 277 275 272 273 273 271 269 269 267 265 262 260 259 257 252 249 247 247 246 245 246 246 247 247 247 247 248 247 245 244 244
293 293 292 292 291 291 290 287 285 283 281 281 280 278 276 274 272 272 271 270 269 267 265 263 262 260 257 253 250 249 248 248 246 246 246 246 247 248 249 250 249 247 246 245
291 292 291 290 290 290 288 286 285 284 281 280 279 278 277 276 273 271 272 271 269 267 266 263 261 260 258 254 251 249 249 248 247 247 248 248 248 248 249 250 250 249 247 246
292 292 290 289 289 288 286 285 285 284 281 280 279 278 278 277 273 270 269 269 268 266 265 263 260 257 255 253 251 249 248 248 247 248 249 248 248 248 250 251 251 250 249 248
292 292 291 290 289 288 287 286 285 284 282 281 280 277 276 276 273 270 268 268 267 266 265 263 260 256 255 254 253 251 249 248 249 250 250 249 249 249 250 251 252 251 248 249
291 291 292 293 293 290 287 285 284 283 282 281 279 278 277 277 275 272 270 269 268 267 265 263 261 258 255 254 253 253 251 249 249 250 251 250 248 250 251 252 252 251 250 250